Weather History for Sacramento, CA

Change the Weather History Date:

Saturday, August 10, 2013

  Actual Average Record
Temperature  
Mean Temperature 71 °F -  
Max Temperature 86 °F 92 °F 110 °F (1996)
Min Temperature 56 °F 58 °F 53 °F (1950)
Degree Days  
Heating Degree Days 0    
Cooling Degree Days 6    
Growing Degree Days 20 (Base 50)    
Moisture  
Dew Point 53 °F    
Average Humidity 60    
Maximum Humidity 86    
Minimum Humidity 34    
Precipitation  
Precipitation 0.00 in 0.00 in 0.00 in (2014)
Month to date precipitation 0.00 0.01  
Year to date precipitation 3.91 11.91  
Since 1 July precipitation T 0.01  
Sea Level Pressure  
Sea Level Pressure 29.97 in    
Wind  
Wind Speed 7 mph (South)    
Max Wind Speed 13 mph    
Max Gust Speed 17 mph    
Visibility 10 miles    
Events      
T = Trace of Precipitation, MM = Missing Value Source: NWS Daily Summary

Daily Weather History Graph

Daily Weather History Graph

Search for Another Location

Airport:

Trip Planner

Search our weather history database for the weather conditions in past years. The results will help you decide how hot, cold, wet, or windy it might be!

Date:

Astronomy

Aug. 10, 2013 Rise Set
Actual Time 6:16 AM PDT 8:05 PM PDT
Civil Twilight 5:47 AM PDT 8:34 PM PDT
Nautical Twilight 5:12 AM PDT 9:09 PM PDT
Astronomical Twilight 4:35 AM PDT 9:46 PM PDT
Moon 10:04 AM PDT (8/10) 9:54 PM PDT (8/10)
Length of Visible Light 14h 47m
Length of Day
13h 49m
Waxing Crescent, 15% of the Moon is Illuminated
Aug 10
Waxing Crescent
Aug 14
First Quarter
Aug 20
Full
Aug 28
Last Quarter
Sep 5
New

Hourly Weather History & Observations

Time (PDT) Temp. Heat Index Dew Point Humidity Pressure Visibility Wind Dir Wind Speed Gust Speed Precip Events Conditions
12:53 AM 59.0 °F - 52.0 °F 78% 29.95 in 10.0 mi South 8.1 mph - N/A   Clear
1:53 AM 57.9 °F - 52.0 °F 81% 29.95 in 10.0 mi South 6.9 mph - N/A   Clear
2:53 AM 57.0 °F - 52.0 °F 83% 29.96 in 10.0 mi South 8.1 mph - N/A   Clear
3:53 AM 57.0 °F - 52.0 °F 83% 29.95 in 10.0 mi South 6.9 mph - N/A   Clear
4:03 AM 57.2 °F - 51.8 °F 82% 29.95 in 10.0 mi South 6.9 mph - N/A   Partly Cloudy
4:53 AM 57.0 °F - 53.1 °F 87% 29.96 in 10.0 mi South 6.9 mph - N/A   Scattered Clouds
5:46 AM 57.2 °F - 51.8 °F 82% 29.97 in 10.0 mi South 8.1 mph - N/A   Mostly Cloudy
5:53 AM 57.0 °F - 52.0 °F 83% 29.97 in 10.0 mi South 6.9 mph - N/A   Mostly Cloudy
6:11 AM 57.2 °F - 51.8 °F 82% 29.97 in 10.0 mi South 9.2 mph - N/A   Scattered Clouds
6:53 AM 55.9 °F - 52.0 °F 87% 29.98 in 10.0 mi South 6.9 mph - N/A   Clear
7:53 AM 57.9 °F - 52.0 °F 81% 29.99 in 10.0 mi South 5.8 mph - N/A   Clear
8:53 AM 62.1 °F - 53.1 °F 72% 30.01 in 10.0 mi South 5.8 mph - N/A   Clear
9:53 AM 66.0 °F - 53.1 °F 63% 30.01 in 10.0 mi WSW 5.8 mph - N/A   Clear
10:53 AM 71.1 °F - 54.0 °F 55% 30.01 in 10.0 mi SW 6.9 mph - N/A   Clear
11:53 AM 75.0 °F - 54.0 °F 48% 30.00 in 10.0 mi SSW 6.9 mph - N/A   Clear
12:53 PM 80.1 °F 80.0 °F 54.0 °F 40% 29.99 in 10.0 mi Variable 6.9 mph - N/A   Clear
1:53 PM 82.9 °F 82.1 °F 55.9 °F 39% 29.97 in 10.0 mi SSW 5.8 mph - N/A   Clear
2:53 PM 82.9 °F 81.8 °F 53.1 °F 36% 29.96 in 10.0 mi Variable 4.6 mph - N/A   Clear
3:53 PM 84.9 °F 83.3 °F 54.0 °F 34% 29.95 in 10.0 mi SSW 8.1 mph - N/A   Clear
4:53 PM 84.9 °F 83.6 °F 55.0 °F 36% 29.94 in 10.0 mi SW 11.5 mph - N/A   Clear
5:53 PM 82.0 °F 81.4 °F 55.0 °F 39% 29.93 in 10.0 mi SSW 11.5 mph - N/A   Clear
6:53 PM 75.9 °F - 55.0 °F 48% 29.93 in 10.0 mi SSW 10.4 mph 19.6 mph N/A   Clear
7:53 PM 71.1 °F - 54.0 °F 55% 29.94 in 10.0 mi SSW 9.2 mph - N/A   Clear
8:53 PM 66.9 °F - 54.0 °F 63% 29.95 in 10.0 mi South 11.5 mph - N/A   Clear
9:53 PM 64.9 °F - 54.0 °F 68% 29.96 in 7.0 mi SSW 6.9 mph - N/A   Clear
10:53 PM 63.0 °F - 54.0 °F 72% 29.97 in 10.0 mi South 5.8 mph - N/A   Clear
11:53 PM 62.1 °F - 55.0 °F 78% 29.98 in 10.0 mi SSE 3.5 mph - N/A   Clear